AEA15VR LEPA-LEMD

Flight info

Callsign AEA15VR
Flight time 1h 0m
Altitude 31000
Route EPAMA N733 PRADO
Aircraft B738/M-SDE2E3FGHIRWXY/LB1

Departure

Time 2026-05-07 09:09
Airport Palma de Mallorca Airport (LEPA)

Arrival

Time 2026-05-07 10:09
Airport Adolfo Suárez Madrid–Barajas Airport (LEMD)
Time Latitude Longitude Altitude Speed Heading
2026-05-07 08:34 39.54579 2.73372 35 ft 0 kts 345°
2026-05-07 08:58 39.54562 2.73380 35 ft 4 kts 330°
2026-05-07 08:58 39.54545 2.73401 34 ft 4 kts 283°
2026-05-07 08:58 39.54547 2.73424 33 ft 1 kts 238°
2026-05-07 08:58 39.54549 2.73429 32 ft 0 kts 238°
2026-05-07 09:02 39.54548 2.73427 35 ft 1 kts 238°
2026-05-07 09:03 39.54534 2.73397 33 ft 7 kts 238°
2026-05-07 09:03 39.54499 2.73326 35 ft 12 kts 238°
2026-05-07 09:03 39.54452 2.73229 34 ft 12 kts 236°
2026-05-07 09:03 39.54374 2.73222 35 ft 12 kts 187°
2026-05-07 09:04 39.54314 2.73143 35 ft 13 kts 213°
2026-05-07 09:04 39.54261 2.73182 35 ft 9 kts 112°
2026-05-07 09:04 39.54258 2.73191 35 ft 0 kts 112°
2026-05-07 09:06 39.54256 2.73197 33 ft 3 kts 112°
2026-05-07 09:06 39.54237 2.73271 35 ft 13 kts 105°
2026-05-07 09:07 39.54223 2.73370 34 ft 7 kts 90°
2026-05-07 09:07 39.54235 2.73403 34 ft 0 kts 58°
2026-05-07 09:08 39.54241 2.73417 33 ft 11 kts 58°
2026-05-07 09:08 39.54412 2.73777 33 ft 83 kts 58°
2026-05-07 09:08 39.54828 2.74648 33 ft 142 kts 58°
2026-05-07 09:09 39.55392 2.75827 530 ft 156 kts 59°
2026-05-07 09:09 39.55978 2.77058 1295 ft 164 kts 59°
2026-05-07 09:09 39.56600 2.78344 2040 ft 172 kts 60°
2026-05-07 09:09 39.57269 2.79755 2438 ft 196 kts 60°
2026-05-07 09:10 39.57978 2.81271 3075 ft 196 kts 61°
2026-05-07 09:10 39.58690 2.82820 3583 ft 204 kts 62°
2026-05-07 09:10 39.59432 2.84427 4110 ft 212 kts 61°
2026-05-07 09:10 39.60196 2.86068 4781 ft 212 kts 61°
2026-05-07 09:11 39.60966 2.87718 5401 ft 215 kts 60°
2026-05-07 09:11 39.61756 2.89406 6002 ft 224 kts 60°
2026-05-07 09:11 39.62655 2.91070 6696 ft 228 kts 41°
2026-05-07 09:11 39.64121 2.91837 7325 ft 236 kts
2026-05-07 09:12 39.65681 2.91204 7945 ft 243 kts 321°
2026-05-07 09:12 39.66746 2.89513 8640 ft 243 kts 297°
2026-05-07 09:12 39.67296 2.87438 9350 ft 243 kts 280°
2026-05-07 09:12 39.67574 2.85298 9873 ft 244 kts 278°
2026-05-07 09:13 39.67880 2.83131 9930 ft 244 kts 279°
2026-05-07 09:13 39.68183 2.80964 9972 ft 244 kts 277°
2026-05-07 09:13 39.68407 2.78764 10017 ft 248 kts 274°
2026-05-07 09:13 39.68532 2.76516 10562 ft 248 kts 270°
2026-05-07 09:14 39.68596 2.74279 11212 ft 254 kts 279°
2026-05-07 09:14 39.69377 2.72122 11425 ft 281 kts 309°
2026-05-07 09:14 39.70553 2.69986 11610 ft 302 kts 294°
2026-05-07 09:14 39.71393 2.67380 11808 ft 324 kts 290°
2026-05-07 09:15 39.72256 2.64563 11986 ft 346 kts 290°
2026-05-07 09:15 39.73185 2.61604 12397 ft 359 kts 291°
2026-05-07 09:15 39.73825 2.59608 12814 ft 362 kts 291°
2026-05-07 09:15 39.74811 2.56587 13633 ft 363 kts 291°
2026-05-07 09:16 39.75811 2.53558 14323 ft 366 kts 291°
2026-05-07 09:16 39.76824 2.50511 15051 ft 368 kts 291°
2026-05-07 09:16 39.77844 2.47445 15775 ft 370 kts 291°
2026-05-07 09:16 39.78869 2.44364 16501 ft 373 kts 291°
2026-05-07 09:17 39.79903 2.41253 17197 ft 376 kts 291°
2026-05-07 09:17 39.80942 2.38120 17886 ft 379 kts 291°
2026-05-07 09:17 39.81944 2.34942 18529 ft 380 kts 284°
2026-05-07 09:17 39.82330 2.31559 19127 ft 377 kts 267°
2026-05-07 09:18 39.81943 2.28211 19779 ft 374 kts 253°
2026-05-07 09:18 39.81213 2.24968 20443 ft 374 kts 251°
2026-05-07 09:18 39.80428 2.21735 21068 ft 375 kts 251°
2026-05-07 09:18 39.79629 2.18497 21665 ft 377 kts 251°
2026-05-07 09:19 39.78831 2.15240 22212 ft 380 kts 251°
2026-05-07 09:19 39.78035 2.11953 22764 ft 382 kts 251°
2026-05-07 09:19 39.77255 2.08701 23339 ft 383 kts 251°
2026-05-07 09:19 39.76465 2.05388 23838 ft 384 kts 251°
2026-05-07 09:20 39.75674 2.02056 24278 ft 386 kts 251°
2026-05-07 09:20 39.74881 1.98711 24702 ft 389 kts 251°
2026-05-07 09:20 39.74082 1.95346 25125 ft 391 kts 250°
2026-05-07 09:20 39.73279 1.91966 25542 ft 392 kts 250°
2026-05-07 09:21 39.72471 1.88567 25951 ft 394 kts 250°
2026-05-07 09:21 39.71657 1.85149 26382 ft 395 kts 250°
2026-05-07 09:21 39.70846 1.81750 26964 ft 392 kts 250°
2026-05-07 09:21 39.70043 1.78384 27580 ft 388 kts 250°
2026-05-07 09:22 39.69244 1.75039 28176 ft 386 kts 250°
2026-05-07 09:22 39.68449 1.71724 28696 ft 385 kts 249°
2026-05-07 09:22 39.67664 1.68453 29235 ft 383 kts 249°
2026-05-07 09:22 39.66874 1.65164 29806 ft 380 kts 249°
2026-05-07 09:23 39.66086 1.61891 30311 ft 378 kts 249°
2026-05-07 09:23 39.65302 1.58636 30703 ft 378 kts 249°
2026-05-07 09:23 39.64514 1.55374 30966 ft 379 kts 249°
2026-05-07 09:23 39.63722 1.52099 30959 ft 380 kts 249°
2026-05-07 09:24 39.62142 1.45564 30970 ft 378 kts 249°
2026-05-07 09:24 39.60566 1.39059 30972 ft 378 kts 250°
2026-05-07 09:25 39.60092 1.35691 30970 ft 384 kts 261°
2026-05-07 09:25 39.59905 1.32241 30968 ft 385 kts 261°
2026-05-07 09:25 39.59568 1.25312 30974 ft 385 kts 261°
2026-05-07 09:26 39.59207 1.18393 30969 ft 385 kts 261°
2026-05-07 09:26 39.58822 1.11504 30973 ft 385 kts 261°
2026-05-07 09:27 39.58424 1.04570 30978 ft 385 kts 260°
2026-05-07 09:28 39.57817 0.94157 30981 ft 386 kts 260°
2026-05-07 09:28 39.57407 0.87222 30983 ft 386 kts 260°
2026-05-07 09:29 39.56993 0.80277 30985 ft 386 kts 260°
2026-05-07 09:29 39.56576 0.73356 30985 ft 387 kts 260°
2026-05-07 09:30 39.56155 0.66413 30991 ft 387 kts 260°
2026-05-07 09:30 39.55727 0.59461 30989 ft 387 kts 260°
2026-05-07 09:31 39.55298 0.52550 30978 ft 386 kts 260°
2026-05-07 09:31 39.54863 0.45609 30986 ft 386 kts 260°
2026-05-07 09:32 39.54426 0.38675 30988 ft 385 kts 260°
2026-05-07 09:32 39.53985 0.31762 30990 ft 385 kts 260°
2026-05-07 09:33 39.53541 0.24887 30991 ft 385 kts 259°
2026-05-07 09:33 39.53090 0.17972 30990 ft 385 kts 259°
2026-05-07 09:34 39.52635 0.11057 30993 ft 385 kts 259°
2026-05-07 09:34 39.52175 0.04129 30997 ft 386 kts 259°
2026-05-07 09:35 39.51710 -0.02812 30997 ft 387 kts 259°
2026-05-07 09:35 39.51242 -0.09747 30998 ft 387 kts 259°
2026-05-07 09:36 39.50771 -0.16662 30996 ft 388 kts 259°
2026-05-07 09:36 39.50292 -0.23629 30996 ft 389 kts 259°
2026-05-07 09:37 39.49809 -0.30608 30996 ft 389 kts 259°
2026-05-07 09:37 39.49320 -0.37606 30994 ft 390 kts 259°
2026-05-07 09:38 39.48933 -0.44632 30986 ft 396 kts 267°
2026-05-07 09:38 39.50123 -0.51733 30995 ft 413 kts 285°
2026-05-07 09:39 39.52891 -0.58399 30999 ft 422 kts 293°
2026-05-07 09:39 39.55859 -0.64908 30989 ft 422 kts 293°
2026-05-07 09:40 39.58800 -0.71467 30997 ft 420 kts 293°
2026-05-07 09:40 39.61696 -0.78032 30993 ft 418 kts 293°
2026-05-07 09:41 39.64571 -0.84584 31001 ft 417 kts 293°
2026-05-07 09:41 39.67432 -0.91119 30992 ft 417 kts 293°
2026-05-07 09:42 39.70297 -0.97669 30995 ft 417 kts 293°
2026-05-07 09:42 39.73158 -1.04237 31011 ft 417 kts 293°
2026-05-07 09:43 39.76005 -1.10788 30988 ft 411 kts 293°
2026-05-07 09:43 39.78787 -1.17154 30995 ft 406 kts 293°
2026-05-07 09:44 39.81571 -1.23548 30745 ft 406 kts 293°
2026-05-07 09:44 39.82948 -1.26722 30470 ft 399 kts 293°
2026-05-07 09:44 39.84306 -1.29858 30072 ft 396 kts 293°
2026-05-07 09:44 39.85654 -1.32977 29640 ft 393 kts 293°
2026-05-07 09:45 39.86982 -1.36054 29227 ft 390 kts 293°
2026-05-07 09:45 39.88313 -1.39135 28804 ft 386 kts 293°
2026-05-07 09:45 39.89608 -1.42139 28412 ft 383 kts 293°
2026-05-07 09:45 39.90905 -1.45150 27992 ft 380 kts 294°
2026-05-07 09:46 39.92192 -1.48139 27577 ft 377 kts 294°
2026-05-07 09:46 39.93471 -1.51110 27176 ft 374 kts 294°
2026-05-07 09:46 39.94740 -1.54062 26780 ft 372 kts 294°
2026-05-07 09:46 39.95996 -1.56988 26394 ft 369 kts 294°
2026-05-07 09:47 39.97245 -1.59901 26009 ft 366 kts 294°
2026-05-07 09:47 39.98485 -1.62796 25623 ft 364 kts 294°
2026-05-07 09:47 39.99717 -1.65674 25251 ft 363 kts 294°
2026-05-07 09:47 40.00943 -1.68543 24857 ft 361 kts 294°
2026-05-07 09:48 40.02162 -1.71398 24493 ft 359 kts 294°
2026-05-07 09:48 40.03376 -1.74243 24107 ft 358 kts 294°
2026-05-07 09:48 40.04582 -1.77073 23731 ft 357 kts 294°
2026-05-07 09:48 40.05787 -1.79903 23296 ft 356 kts 294°
2026-05-07 09:49 40.06986 -1.82720 22879 ft 354 kts 294°
2026-05-07 09:49 40.08178 -1.85524 22470 ft 352 kts 294°
2026-05-07 09:49 40.09362 -1.88311 22083 ft 350 kts 295°
2026-05-07 09:49 40.10539 -1.91085 21703 ft 348 kts 295°
2026-05-07 09:50 40.11709 -1.93844 21336 ft 346 kts 295°
2026-05-07 09:50 40.12871 -1.96587 20962 ft 344 kts 295°
2026-05-07 09:50 40.14025 -1.99314 20596 ft 342 kts 295°
2026-05-07 09:50 40.15175 -2.02032 20213 ft 341 kts 295°
2026-05-07 09:51 40.16313 -2.04721 19818 ft 341 kts 295°
2026-05-07 09:51 40.17461 -2.07435 19449 ft 340 kts 295°
2026-05-07 09:51 40.18607 -2.10144 19077 ft 340 kts 295°
2026-05-07 09:51 40.19747 -2.12843 18710 ft 339 kts 295°
2026-05-07 09:52 40.20884 -2.15538 18347 ft 338 kts 295°
2026-05-07 09:52 40.22018 -2.18228 17944 ft 337 kts 295°
2026-05-07 09:52 40.23147 -2.20909 17549 ft 335 kts 296°
2026-05-07 09:52 40.24271 -2.23578 17181 ft 333 kts 295°
2026-05-07 09:53 40.25388 -2.26235 16813 ft 331 kts 295°
2026-05-07 09:53 40.26182 -2.29019 16437 ft 323 kts 275°
2026-05-07 09:53 40.26298 -2.31919 16134 ft 317 kts 267°
2026-05-07 09:53 40.26276 -2.34802 15763 ft 316 kts 266°
2026-05-07 09:54 40.26234 -2.37674 15423 ft 315 kts 266°
2026-05-07 09:54 40.26196 -2.40537 15074 ft 314 kts 266°
2026-05-07 09:54 40.26166 -2.43392 14728 ft 313 kts 266°
2026-05-07 09:54 40.26142 -2.46170 14614 ft 304 kts 266°
2026-05-07 09:55 40.26123 -2.48903 14465 ft 297 kts 267°
2026-05-07 09:55 40.26106 -2.51572 14330 ft 289 kts 266°
2026-05-07 09:55 40.26090 -2.54162 14211 ft 281 kts 266°
2026-05-07 09:55 40.26074 -2.56689 14089 ft 273 kts 267°
2026-05-07 09:56 40.26058 -2.59141 13973 ft 265 kts 267°
2026-05-07 09:56 40.26046 -2.61534 13753 ft 262 kts 267°
2026-05-07 09:56 40.26039 -2.63915 13493 ft 261 kts 266°
2026-05-07 09:56 40.26034 -2.66282 13239 ft 260 kts 267°
2026-05-07 09:57 40.26028 -2.68653 12991 ft 260 kts 266°
2026-05-07 09:57 40.26021 -2.71031 12740 ft 261 kts 266°
2026-05-07 09:57 40.26013 -2.73416 12481 ft 262 kts 266°
2026-05-07 09:57 40.26005 -2.75774 12235 ft 263 kts 267°
2026-05-07 09:58 40.25998 -2.78087 11993 ft 264 kts 267°
2026-05-07 09:58 40.25989 -2.80453 11757 ft 262 kts 266°
2026-05-07 09:58 40.25980 -2.82837 11506 ft 261 kts 266°
2026-05-07 09:58 40.25970 -2.85216 11256 ft 260 kts 266°
2026-05-07 09:59 40.25959 -2.87582 11007 ft 259 kts 266°
2026-05-07 09:59 40.25949 -2.89941 10744 ft 258 kts 266°
2026-05-07 09:59 40.25938 -2.92289 10504 ft 258 kts 266°
2026-05-07 09:59 40.25927 -2.94630 10260 ft 257 kts 266°
2026-05-07 10:00 40.25915 -2.96964 10004 ft 256 kts 267°
2026-05-07 10:00 40.25904 -2.99289 9757 ft 254 kts 266°
2026-05-07 10:00 40.25891 -3.01597 9485 ft 253 kts 266°
2026-05-07 10:00 40.25882 -3.03117 9317 ft 252 kts 266°
2026-05-07 10:01 40.25864 -3.06141 9014 ft 248 kts 266°
2026-05-07 10:01 40.25852 -3.08347 8929 ft 239 kts 266°
2026-05-07 10:01 40.25839 -3.10501 8733 ft 235 kts 266°
2026-05-07 10:01 40.25824 -3.12641 8484 ft 235 kts 266°
2026-05-07 10:02 40.25845 -3.14057 8316 ft 235 kts 272°
2026-05-07 10:02 40.26095 -3.16181 8086 ft 236 kts 277°
2026-05-07 10:02 40.26398 -3.18298 7815 ft 237 kts 277°
2026-05-07 10:02 40.26694 -3.20415 7577 ft 236 kts 277°
2026-05-07 10:03 40.26984 -3.22541 7340 ft 237 kts 277°
2026-05-07 10:03 40.27274 -3.24677 7080 ft 239 kts 277°
2026-05-07 10:03 40.27560 -3.26819 6826 ft 238 kts 277°
2026-05-07 10:03 40.27842 -3.28957 6603 ft 239 kts 277°
2026-05-07 10:04 40.28125 -3.31104 6338 ft 239 kts 277°
2026-05-07 10:04 40.28455 -3.33242 6080 ft 240 kts 285°
2026-05-07 10:04 40.29020 -3.35273 5943 ft 235 kts 289°
2026-05-07 10:04 40.29620 -3.37254 5701 ft 232 kts 289°
2026-05-07 10:05 40.30316 -3.39124 5447 ft 233 kts 309°
2026-05-07 10:05 40.31555 -3.40463 5275 ft 229 kts 324°
2026-05-07 10:05 40.32857 -3.41681 5018 ft 229 kts 322°
2026-05-07 10:05 40.34117 -3.42943 4815 ft 225 kts 321°
2026-05-07 10:06 40.35332 -3.44184 4621 ft 215 kts 321°
2026-05-07 10:06 40.36485 -3.45364 4414 ft 208 kts 321°
2026-05-07 10:06 40.37613 -3.46516 4156 ft 201 kts 321°
2026-05-07 10:06 40.38690 -3.47615 3891 ft 191 kts 321°
2026-05-07 10:07 40.39688 -3.48634 3646 ft 177 kts 321°
2026-05-07 10:07 40.40633 -3.49597 3423 ft 170 kts 322°
2026-05-07 10:07 40.41537 -3.50521 3199 ft 164 kts 322°
2026-05-07 10:07 40.42440 -3.51437 2955 ft 163 kts 323°
2026-05-07 10:08 40.43320 -3.52346 2706 ft 159 kts 322°
2026-05-07 10:08 40.44174 -3.53237 2473 ft 155 kts 324°
2026-05-07 10:08 40.45023 -3.54085 2276 ft 153 kts 325°
2026-05-07 10:08 40.45869 -3.54926 2086 ft 152 kts 323°
2026-05-07 10:09 40.46683 -3.55778 1972 ft 141 kts 323°
2026-05-07 10:09 40.47356 -3.56454 1988 ft 93 kts 322°
2026-05-07 10:09 40.47688 -3.56795 1995 ft 36 kts 315°
2026-05-07 10:09 40.47774 -3.56977 1997 ft 19 kts 295°
2026-05-07 10:10 40.47798 -3.57096 1999 ft 8 kts 244°
2026-05-07 10:10 40.47748 -3.57107 1998 ft 8 kts 160°
2026-05-07 10:10 40.47708 -3.57076 1997 ft 6 kts 143°
2026-05-07 10:10 40.47666 -3.57056 1996 ft 7 kts 190°
2026-05-07 10:11 40.47625 -3.57089 1995 ft 7 kts 233°
2026-05-07 10:11 40.47597 -3.57141 1995 ft 7 kts 232°
2026-05-07 10:11 40.47566 -3.57188 1995 ft 7 kts 227°
2026-05-07 10:11 40.47525 -3.57198 1995 ft 7 kts 148°
2026-05-07 10:12 40.47483 -3.57152 1992 ft 9 kts 133°
2026-05-07 10:12 40.47447 -3.57088 1991 ft 9 kts 131°
2026-05-07 10:12 40.47404 -3.57082 1990 ft 6 kts 211°
2026-05-07 10:12 40.47366 -3.57088 1989 ft 0 kts 182°